Airfield :
LOGIN :

Register | Disclaimer

   EN    FR    IT 

 










Legend :    VFR   Marginal VFR   IFR   Intensive IFR   Very Intensive IFR
Visi :
Ceiling :
>= 8 km
>= 3000ft
5 to 8 km
1000 to 3000 ft
1500m to 5 km
500 to 1000 ft
800 to 1500m
200 to 500 ft
< 800m
< 200 ft
Symbols :   Thunderstorms  Fog  Heavy snow  Heavy precipitations  Wind > 20 kt
SIGMETs :     Misc.  Thunderstorms  Icing  Turbulence  Mountain Waves  Volcanic Ashes







- Airport Elevation : 336 ft
- IATA code : GCI
- Download approach charts


EGJB - Guernsey

CURRENT METAR :
  • 220850Z 17018KT CAVOK 13/10 Q1003

EXPIRED METARs :
  • 220820Z 18017KT CAVOK 13/10 Q1003
  • 220750Z 18017KT CAVOK 12/09 Q1003
  • 220720Z 17017KT CAVOK 12/09 Q1004
  • 220650Z 19016KT CAVOK 13/09 Q1004
  • 220620Z 19016KT CAVOK 13/09 Q1004

TAF TAF EGJB
Valid from the 22 at 09:00 until the 22 at 18:00 UTC


220756Z 2209/2218 19023G34KT CAVOK
ATIS : +44 1481 238 957
No reported NOTAMs for that airfield.
1 SIGMET reported for the Brest FIR (LFRR) :
 
Severe turbulence
LFRR SIGMET 1 VALID 220820/221000 LFPW
LFRR BREST FIR/UIR SEV TURB FCST W OF LINE N4445 W00730 - N4915 W00545 SFC/FL060 MOV NE 20KT INTSF=



MET'MAP, your aeronautical weather chart ! - Copyright ORBIFLY December 2007 - Disclaimer

ORBIFLY MET'MAP TEAM :

Programming & Development : Alexandra Zaïnal
Concept & Development : Baudouin d'Aumeries
Co-Development & Prog : Marc-Olivier Méhu
Technical & hardware support : Manuel Goepfert

Contact : metmap@orbifly.com




SOURCES & CREDITS :

   NOAA